Location: *
(48.8489°N, 2.3218°E)
Time: 04:26:42
(UTC+00:00)

NOSS 3-1 (A) - Pass Details

Date: 23 August 2019
Orbit: 774 x 1439 km, 63.4° (Epoch: 03 September)

Event Time Altitude Azimuth Distance (km) Brightness Sun altitude
Rises 20:38:30 0° 316° (NW) 3,843 8.4 -16.1°
Reaches altitude 10° 20:41:04 10° 321° (NW) 2,979 7.3 -16.5°
Maximum altitude 20:48:09 55° 39° (NE) 1,468 4.4 -17.3°
Enters shadow 20:53:33 22° 109° (ESE) 2,545 5.1 -18.0°
